Showing default

NUSAT-38 (MARIA AGNESI), 56202

Orbit data source: Space-Track

NUSAT-38 (MARIA AGNESI), 56202 is a payload satellite owned by URUGUS S.A. (AR) in SSO that was launched on Sat, 15 Apr 2023 UTC via an FALCON 9 launch vehicle from the Air Force Western Test Range (AFWTR). Payload-class satellites include a variety of spacecraft equipped with specific instruments for various scientific and technological missions. These include communications satellites like Starlink; space stations such as the ISS; scientific satellites like the Hubble; Earth observation satellites from companies like Planet Labs, Umbra, and HawkEye 360; GPS; miniature CubeSats for education and research; and military/defense satellites.

Loading next visibility...
Identifier
56202, 2023-054AA
Orbit
SSO
Country
Flag of UnknownUnknown / ARGN
Related business
Manufacturer
URUGUS S.A.
Mission
Operational Commercial Imaging
Bus & Motor
NEWSAT V, Unknown motor
Mass
41.5 kg wet, 38.5 kg dry
Launch date (UTC)
2023-04-15 (3 years ago)
Launch vehicle
FALCON 9
Launch site
Air Force Western Test Range (AFWTR)
Object type
Payload
Rocket body
Debris
Shape & HBR
Box, 1.0 m
Radar Cross Section
0.542 m², Medium (>0.1 m² and < 1m²)

Expand to show TLE details & history
Last TLE update: 12 hours ago

TLE from 12 hours ago
0 NUSAT-38 (MARIA AGNESI)
1 56202U 23054AA  25310.26117737  .00040496  00000-0  96118-3 0  9995
2 56202  97.3178 214.4655 0015522 146.5815 213.6415 15.41469695144117
Epoch: 2025-11-06T06:16Z
TLE epoch observation values (Epoch: 2025-11-06T06:16:05.724Z)
Latitude
-0.00003°
Longitude
74.71962°
Altitude
453.713 km
Speed
7.635 km/s
True Right ascension
14h 17m 51s
True Declination
0° 00' 00"
Sunlit
Object was in daylight at epoch
Visualization orbit readout
Latitude
Unknown
Longitude
Unknown
Altitude
Unknown
Speed
Unknown
Apparent Right ascension
Unknown
Apparent Declination
Unknown
Sunlit
N/A
Visualization observer readout
Local Sidereal Time
13:57:50
Azimuth
Unknown
Elevation
Unknown
Doppler factor
Unknown
Orbital elements
Apogee altitude
449.286 km
Perigee altitude
428.123 km
Semi-major axis
6,816.841 km
Eccentricity
0.00155
Inclination
97.3178°
RAAN
214.4655°
Arg. of periapsis
146.5815°
True anomaly
213.54312°
Mean anomaly
213.6415°
Eccentric anomaly
213.59229°
Mean motion
3.85628 °/min
Orbital period
93.35 mins
BSTAR
0.00096118
Loading maneuver chart data...
Computing Atmospheric mass density...
Loading historical data...
Loading historical data...
Loading historical data...
Loading historical data...
Loading historical data...
Loading historical data...
Loading historical data...

Documentation

Showing up to 5 results
|